When you browse on this site, cookies collect data to enhance your experience and personalize the content and advertising you see.
Visit our Privacy Policy to learn more. By continuing to use the site, you agree to this use of cookies and data.
  • Em Portugal
  • Lista de países
  • Para 7 dias
  • Temperatura da água
  • Mapas de satélite
  • Mapa do tempo
  • Widgets de tempo
  • user-avatar
    Iniciar Sessão

    Previsão horária em Hakodate

    Hoje, 20 Novembro, Terça-feira

    Tempo Temperatura Precipitação Vento Pressão Humidade
    00:00 +4°C° 0 mm 6 m/s 760 mmHg 63%
    01:00 +4°C° 0 mm 6 m/s 760 mmHg 64%
    02:00 +3°C° 0 mm 6 m/s 760 mmHg 64%
    03:00 +3°C° 0 mm 6 m/s 760 mmHg 65%
    04:00 +3°C° 0 mm 5 m/s 760 mmHg 66%
    05:00 +3°C° 0 mm 5 m/s 760 mmHg 67%
    06:00 +4°C° 0 mm 4 m/s 760 mmHg 68%
    07:00 +4°C° 0.1 mm 4 m/s 760 mmHg 66%
    08:00 +5°C° 0.1 mm 4 m/s 761 mmHg 64%
    09:00 +6°C° 0 mm 2 m/s 760 mmHg 61%
    10:00 +7°C° 0.1 mm 2 m/s 760 mmHg 62%
    11:00 +7°C° 0.1 mm 3 m/s 760 mmHg 62%
    12:00 +7°C° 0.1 mm 3 m/s 760 mmHg 63%
    13:00 +6°C° 0.3 mm 4 m/s 760 mmHg 66%
    14:00 +6°C° 0.3 mm 5 m/s 760 mmHg 68%
    15:00 +4°C° 0.3 mm 6 m/s 760 mmHg 71%
    16:00 +4°C° 0.1 mm 6 m/s 760 mmHg 71%
    17:00 +4°C° 0.1 mm 6 m/s 761 mmHg 70%
    18:00 +3°C° 0.1 mm 7 m/s 761 mmHg 69%
    19:00 +3°C° 0 mm 6 m/s 762 mmHg 69%
    20:00 +3°C° 0 mm 6 m/s 762 mmHg 69%
    21:00 +2°C° 0 mm 6 m/s 762 mmHg 68%
    22:00 +2°C° 0 mm 5 m/s 762 mmHg 69%
    23:00 +3°C° 0 mm 3 m/s 762 mmHg 70%

    Amanhã, 21 Novembro, Quarta-feira

    Tempo Temperatura Precipitação Vento Pressão Humidade
    00:00 +4°C° 0 mm 2 m/s 762 mmHg 71%
    01:00 +3°C° 0.1 mm 3 m/s 761 mmHg 71%
    02:00 +3°C° 0.1 mm 3 m/s 761 mmHg 71%
    03:00 +3°C° 0.1 mm 4 m/s 761 mmHg 72%
    04:00 +2°C° 3 mm 5 m/s 760 mmHg 75%
    05:00 +3°C° 3 mm 6 m/s 759 mmHg 79%
    06:00 +3°C° 3 mm 7 m/s 758 mmHg 83%
    07:00 +4°C° 1.2 mm 7 m/s 758 mmHg 81%
    08:00 +4°C° 1.2 mm 6 m/s 758 mmHg 79%
    09:00 +5°C° 1.2 mm 6 m/s 758 mmHg 77%
    10:00 +5°C° 0.1 mm 7 m/s 759 mmHg 73%
    11:00 +6°C° 0.1 mm 9 m/s 759 mmHg 68%
    12:00 +6°C° 0.1 mm 10 m/s 759 mmHg 64%
    13:00 +5°C° 0.1 mm 10 m/s 760 mmHg 66%
    14:00 +5°C° 0.1 mm 9 m/s 760 mmHg 68%
    15:00 +4°C° 0.1 mm 8 m/s 761 mmHg 70%
    16:00 +4°C° 0.1 mm 7 m/s 761 mmHg 71%
    17:00 +3°C° 0.1 mm 6 m/s 761 mmHg 72%
    18:00 +3°C° 0.1 mm 5 m/s 762 mmHg 73%
    19:00 +4°C° 0 mm 4 m/s 762 mmHg 74%
    20:00 +3°C° 0 mm 3 m/s 762 mmHg 74%
    21:00 +3°C° 0 mm 3 m/s 762 mmHg 75%
    22:00 +4°C° 0.1 mm 2 m/s 762 mmHg 75%
    23:00 +4°C° 0.1 mm 2 m/s 762 mmHg 76%

    Depois de amanhã, 22 Novembro, Quinta-feira

    Tempo Temperatura Precipitação Vento Pressão Humidade
    00:00 +5°C° 0.1 mm 1 m/s 762 mmHg 76%
    01:00 +5°C° 0.1 mm 1 m/s 761 mmHg 78%
    02:00 +5°C° 0.1 mm 1 m/s 761 mmHg 79%
    03:00 +5°C° 0.1 mm 1 m/s 760 mmHg 80%
    04:00 +4°C° 0.2 mm 2 m/s 760 mmHg 81%
    05:00 +3°C° 0.2 mm 3 m/s 759 mmHg 82%
    06:00 +3°C° 0.2 mm 3 m/s 758 mmHg 83%
    07:00 +3°C° 0.8 mm 4 m/s 758 mmHg 84%
    08:00 +4°C° 0.8 mm 4 m/s 758 mmHg 84%
    09:00 +3°C° 0.8 mm 5 m/s 757 mmHg 85%
    10:00 +4°C° 1.2 mm 4 m/s 756 mmHg 86%
    11:00 +4°C° 1.2 mm 4 m/s 756 mmHg 86%
    12:00 +5°C° 1.2 mm 4 m/s 755 mmHg 87%
    13:00 +5°C° 0.3 mm 5 m/s 754 mmHg 87%
    14:00 +3°C° 0.3 mm 6 m/s 754 mmHg 87%
    15:00 +3°C° 0.3 mm 7 m/s 753 mmHg 86%
    16:00 +3°C° 0.1 mm 7 m/s 754 mmHg 84%
    17:00 +2°C° 0.1 mm 6 m/s 754 mmHg 82%
    18:00 +1°C° 0.1 mm 6 m/s 754 mmHg 81%
    19:00 +2°C° 0.2 mm 7 m/s 755 mmHg 78%
    20:00 +1°C° 0.2 mm 8 m/s 755 mmHg 76%
    21:00 +1°C° 0.2 mm 9 m/s 755 mmHg 74%
    22:00 0°C° 0.3 mm 9 m/s 755 mmHg 73%
    23:00 0°C° 0.3 mm 10 m/s 755 mmHg 71%

    23 Novembro, Sexta-feira

    Tempo Temperatura Precipitação Vento Pressão Humidade
    00:00 -1°C° 0.3 mm 11 m/s 754 mmHg 69%
    01:00 -2°C° 0.5 mm 11 m/s 755 mmHg 71%
    02:00 -2°C° 0.5 mm 12 m/s 755 mmHg 72%
    03:00 -3°C° 0.5 mm 12 m/s 755 mmHg 74%
    04:00 -3°C° 0.4 mm 12 m/s 755 mmHg 73%
    05:00 -5°C° 0.4 mm 12 m/s 756 mmHg 73%
    06:00 -5°C° 0.4 mm 12 m/s 757 mmHg 73%
    07:00 -5°C° 0.2 mm 12 m/s 757 mmHg 72%
    08:00 -5°C° 0.2 mm 12 m/s 758 mmHg 72%
    09:00 -4°C° 0.2 mm 11 m/s 759 mmHg 71%
    10:00 -4°C° 0.1 mm 11 m/s 759 mmHg 71%
    11:00 -4°C° 0.1 mm 11 m/s 759 mmHg 71%
    12:00 -3°C° 0.1 mm 11 m/s 759 mmHg 71%
    13:00 -3°C° 0.2 mm 11 m/s 759 mmHg 71%
    14:00 -4°C° 0.2 mm 11 m/s 759 mmHg 72%
    15:00 -4°C° 0.2 mm 11 m/s 760 mmHg 73%
    16:00 -4°C° 0.2 mm 10 m/s 760 mmHg 74%
    17:00 -4°C° 0.2 mm 10 m/s 761 mmHg 74%
    18:00 -4°C° 0.2 mm 10 m/s 761 mmHg 75%
    19:00 -4°C° 0.2 mm 9 m/s 762 mmHg 75%
    20:00 -4°C° 0.2 mm 9 m/s 762 mmHg 75%
    21:00 -4°C° 0.2 mm 9 m/s 763 mmHg 75%
    22:00 -4°C° 0.2 mm 9 m/s 763 mmHg 75%
    23:00 -4°C° 0.2 mm 9 m/s 763 mmHg 75%

    24 Novembro, Sábado

    Tempo Temperatura Precipitação Vento Pressão Humidade
    00:00 -4°C° 0.2 mm 9 m/s 763 mmHg 75%
    01:00 -3°C° 0.2 mm 9 m/s 764 mmHg 75%
    02:00 -3°C° 0.2 mm 9 m/s 764 mmHg 75%
    03:00 -3°C° 0.2 mm 9 m/s 764 mmHg 75%
    04:00 -3°C° 0.1 mm 9 m/s 764 mmHg 75%
    05:00 -2°C° 0.1 mm 8 m/s 765 mmHg 75%
    06:00 -2°C° 0.1 mm 8 m/s 765 mmHg 74%
    07:00 -2°C° 0.1 mm 8 m/s 765 mmHg 74%
    08:00 -2°C° 0.1 mm 7 m/s 766 mmHg 73%
    09:00 -1°C° 0.1 mm 7 m/s 766 mmHg 73%
    10:00 -1°C° 0.2 mm 7 m/s 766 mmHg 72%
    11:00 -1°C° 0.2 mm 7 m/s 766 mmHg 71%
    12:00 0°C° 0.2 mm 7 m/s 766 mmHg 70%
    13:00 0°C° 0.1 mm 7 m/s 765 mmHg 71%
    14:00 0°C° 0.1 mm 7 m/s 765 mmHg 71%
    15:00 0°C° 0.1 mm 7 m/s 765 mmHg 71%
    16:00 -1°C° 0.1 mm 6 m/s 766 mmHg 72%
    17:00 -1°C° 0.1 mm 6 m/s 766 mmHg 73%
    18:00 -1°C° 0.1 mm 6 m/s 766 mmHg 74%
    19:00 0°C° 0.1 mm 5 m/s 766 mmHg 74%
    20:00 0°C° 0.1 mm 5 m/s 766 mmHg 75%
    21:00 0°C° 0.1 mm 4 m/s 766 mmHg 76%
    22:00 +1°C° 0 mm 3 m/s 766 mmHg 76%
    23:00 +1°C° 0 mm 3 m/s 766 mmHg 76%

    25 Novembro, Domingo

    Tempo Temperatura Precipitação Vento Pressão Humidade
    00:00 +1°C° 0 mm 2 m/s 766 mmHg 77%
    01:00 +1°C° 0.1 mm 2 m/s 766 mmHg 78%
    02:00 +2°C° 0.1 mm 2 m/s 766 mmHg 80%
    03:00 +3°C° 0.1 mm 1 m/s 765 mmHg 81%
    04:00 +2°C° 0.2 mm 2 m/s 765 mmHg 82%
    05:00 +2°C° 0.2 mm 2 m/s 765 mmHg 82%
    06:00 +2°C° 0.2 mm 2 m/s 765 mmHg 83%
    07:00 +3°C° 0.4 mm 2 m/s 765 mmHg 82%
    08:00 +2°C° 0.4 mm 3 m/s 765 mmHg 81%
    09:00 +3°C° 0.4 mm 3 m/s 765 mmHg 80%
    10:00 +3°C° 1.9 mm 4 m/s 765 mmHg 80%
    11:00 +4°C° 1.9 mm 4 m/s 764 mmHg 81%
    12:00 +3°C° 1.9 mm 5 m/s 764 mmHg 81%
    13:00 +3°C° 1.8 mm 5 m/s 764 mmHg 83%
    14:00 +4°C° 1.8 mm 4 m/s 763 mmHg 85%
    15:00 +4°C° 1.8 mm 4 m/s 763 mmHg 87%
    16:00 +4°C° 0.4 mm 4 m/s 763 mmHg 88%
    17:00 +4°C° 0.4 mm 3 m/s 763 mmHg 89%
    18:00 +4°C° 0.4 mm 3 m/s 763 mmHg 90%
    19:00 +4°C° 0.3 mm 3 m/s 763 mmHg 91%
    20:00 +3°C° 0.3 mm 3 m/s 763 mmHg 92%
    21:00 +3°C° 0.3 mm 3 m/s 763 mmHg 93%
    22:00 +3°C° 0.1 mm 3 m/s 763 mmHg 92%
    23:00 +3°C° 0.1 mm 3 m/s 763 mmHg 91%
    Mostrar mais